Regional Weather Roundup
Issued by NWS

Home | Current Version | Previous Version | Text Only | Print | Product List | Glossary Off
Versions: 1 2 3 4 5 6 7 8 9 10 11 12 13 14 15 16 17 18 19 20 21 22 23 24 25 26 27 28

000
ASUS45 KTFX 261610
RWRMT
MONTANA REGIONAL WEATHER ROUNDUP
NATIONAL WEATHER SERVICE GREAT FALLS MT
900 AM MST SUN FEB 26 2017

NOTE: "FAIR" INDICATES FEW OR NO CLOUDS BELOW 12000 FEET WITH NO
SIGNIFICANT WEATHER AND/OR OBSTRUCTIONS TO VISIBILITY.

MTZ001>007-043-261700-
WEST OF THE DIVIDE

CITY           SKY/WX    TMP DP  RH WIND       PRES   REMARKS
KALISPELL      LGT SNOW  26  23  88 SE6       29.72S VSB 1   WCI  19
MISSOULA       CLOUDY    28  22  78 E8        29.74R WCI  20
BUTTE          CLOUDY    20   9  62 S7        29.67S WCI  11
MULLAN PASS    LGT SNOW  16  14  92 CALM      29.56R FOG
ANACONDA         N/A     23  10  58 S9        29.69S WCI  13
DEER LODGE       N/A     25  18  74 S6        29.71S WCI  18
EUREKA           N/A     25  23  93 CALM      29.73R
HAMILTON         N/A     28  18  64 S9        29.71  WCI  20
LIBBY            N/A     25  25 100 CALM      29.71S
RONAN            N/A     26  23  88 CALM      29.76F
$$

MTZ008-052>055-261700-
SOUTHWEST MONTANA

CITY           SKY/WX    TMP DP  RH WIND       PRES   REMARKS
BOZEMAN        CLOUDY    26  12  55 SE6       29.73F WCI  19
DILLON         CLOUDY    22   7  52 SW9       29.70R WCI  12
W YELLOWSTONE  LGT SNOW  10   7  85 N3        29.75S
ENNIS          SUNNY     19   7  58 S17G25    29.78S WCI   4
THREE FORKS      N/A     26  26 100 S21       29.76R WCI  12
$$

MTZ009-010-012-014-046-048-049-054-261700-
EAST SLOPES AND CENTRAL MONTANA

CITY           SKY/WX    TMP DP  RH WIND       PRES   REMARKS
CUT BANK       CLOUDY    17  13  84 N16       29.76R FOG     WCI   2
GREAT FALLS    LGT SNOW  22  19  89 NE8       29.73R FOG     WCI  12
MALMSTROM AFB  LGT SNOW  21  21 100 NE7       29.75R WCI  13
HELENA         CLOUDY    25  22  88 NW6       29.72S WCI  18
AUGUSTA        LGT SNOW  22  20  94 NE12      29.69R FOG     WCI  10
BOWMANS CRNR   FLURRIES  23  16  75 S9        29.67R WCI  13
CHOTEAU        FOG       21  21 100 NE9       29.75R VSB 1/2 WCI  11
CONRAD           N/A     20  18  92 NW8       29.80R WCI  10
POWER          LGT SNOW  20  17  89 NE13      29.72R VSB 1   WCI   7
RAYNESFORD     LGT SNOW  22  20  93 NW6       29.72R WCI  15
ULM            PTSUNNY   26  21  82 MISG      29.73R
$$

MTZ011-013-016-021-045-047-050-051-261700-
NORTH CENTRAL MONTANA

CITY           SKY/WX    TMP DP  RH WIND       PRES   REMARKS
HAVRE          CLOUDY    24  16  71 N15       29.79R WCI  11
LEWISTOWN      LGT SNOW  21  18  88 NW8       29.71R FOG     WCI  11
N BAR RANCH    LGT SNOW  21  18  86 NW13      29.71R VSB 3/4 WCI   9
CHINOOK          N/A     23  12  63 NW10G16   29.79R WCI  12
DENTON         FLURRIES  22  19  91 N8        29.71R WCI  12
FORT BENTON      N/A     27  19  74 MISG      29.79R
GEYSER         LGT SNOW  21  19  91 NE8       29.71R WCI  12
GRASS RANGE    FLURRIES  23  20  88 W8        29.69R WCI  13
JUDITH GAP     FLURRIES  19  15  84 N7        29.69R WCI  10
ROY            CLOUDY    22  18  84 MISG      29.72R
STANFORD       LGT SNOW  23  20  90 NW13      29.69R FOG     WCI  11
WINIFRED         N/A     21  18  88 NW10      29.72R WCI   9
$$

MTZ017>020-022>027-061-062-261700-
NORTHEAST MONTANA

CITY           SKY/WX    TMP DP  RH WIND       PRES   REMARKS
GLASGOW        PTSUNNY   19  15  84 NW10      29.73R WCI   7
JORDAN           N/A     28  22  78 NW17G26   29.71R WCI  16
SIDNEY         CLOUDY    22  17  81 CALM      29.72R
WOLF POINT     CLOUDY    18  14  84 CALM      29.74R
PLENTYWOOD       N/A     19  18  93 CALM      29.71S
POPLAR           N/A     14  10  85 W3        29.75R
SCOBEY           N/A     14   6  70 SW1       29.70R
$$

MTZ028>42-056>058-261700-
SOUTHCENTRAL AND SOUTHEAST MONTANA

CITY           SKY/WX    TMP DP  RH WIND       PRES   REMARKS
BAKER          CLOUDY    27  20  75 W16       29.69R WCI  15
BILLINGS       CLOUDY    26  12  55 SW12      29.74R WCI  16
LIVINGSTON     CLOUDY    24   8  50 SW36G45   29.68S WCI   6
MILES CITY     PTSUNNY   32  20  61 W16       29.72R WCI  21
BIG TIMBER     MOSUNNY   23   9  54 W15       29.74F WCI  10
EKALAKA          N/A     25  15  65 W13       29.70R WCI  14
FORSYTH          N/A     32  19  59 W15G25    29.74R WCI  22
HARLOWTON        N/A     24  18  75 W22       29.69R WCI   9
LAUREL           N/A     24  10  55 S9        29.74R WCI  14
$$

REGIONAL REPORTS...DAKOTAS

CITY           SKY/WX    TMP DP  RH WIND       PRES   REMARKS
WILLISTON      LGT SNOW  16  12  84 NE3       29.73S FOG
MINOT          FLURRIES   9   5  84 SW8       29.76R WCI  -3
DICKINSON      MOSUNNY   22  16  78 W9        29.66R WCI  12
BEACH            N/A    N/A N/A N/A MISG        N/A
CROSBY           N/A     16  16 100 SW8       29.76R WCI   5
TIOGA            N/A      9   9 100 E3        29.74R
WATFORD CITY   CLOUDY    16  14  93 SE6       29.72S FOG     WCI   7
BISMARCK       CLOUDY    16  11  80 SE6       29.79R WCI   7
GRAND FORKS    SUNNY     11   0  61 W7        29.84R WCI   0
FARGO          MOSUNNY   14   6  70 MISG      29.85R
BUFFALO SD       N/A     30  18  60 W18       29.64S WCI  18
RAPID CITY     SUNNY     28  15  58 S5        29.78R
$$

REGIONAL REPORTS...WYOMING/IDAHO/WASHINGTON

CITY           SKY/WX    TMP DP  RH WIND       PRES   REMARKS
GILLETTE       SUNNY     23   8  52 SW14      29.74R WCI  11
SHERIDAN       CLOUDY    26  12  55 SE9       29.74R WCI  17
BUFFALO WY     SUNNY     21   5  50 W6        29.72R WCI  13
CODY           CLOUDY    26   2  35 SW15G25   29.74R WCI  14
YELLOWSTONE LA   N/A      7   3  84 CALM      29.71F
IDAHO FALLS    CLOUDY    13  10  88 NW3       29.87S
SALMON         CLOUDY    27  10  50 S10       29.76S WCI  17
BOISE          PTSUNNY   31  17  56 SE22      29.82S WCI  18
SPOKANE        LGT SNOW  28  27  96 CALM      29.72S FOG
$$

REGIONAL REPORTS...ALBERTA

CITY           SKY/WX    TMP DP  RH WIND       PRES   REMARKS
EDMONTON       PTSUNNY    7   0  72 N15G24    29.91R WCI -11
CALGARY        LGT SNOW  14   9  79 NW8       29.80R WCI   3
LETHBRIDGE     CLOUDY    18  12  79 N10       29.84R WCI   6
MEDICINE HAT   LGT SNOW  18  14  86 NW7       29.82R WCI   8
CARDSTON         N/A     18  14  86 N9          N/A  WCI   6
MILK RIVER       N/A     16  14  93 N13G18      N/A  WCI   2
ONEFOUR          N/A     16  12  86 NW16        N/A  WCI   0
$$

REGIONAL REPORTS...SASKATCHEWAN

CITY           SKY/WX    TMP DP  RH WIND       PRES   REMARKS
SWIFT CURRENT  CLOUDY    14  12  92 W10       29.71R WCI   1
REGINA         FLURRIES  19  16  86 W13       29.70R WCI   7
SASKATOON      PTSUNNY   14   9  79 NW13      29.76R WCI   0
CYPRESS HILLS    N/A     10   7  85 NW12G21     N/A  WCI  -4
VAL MARIE        N/A     19  16  86 N15         N/A  WCI   5
ROCKGLEN         N/A     16  14  93 NW9         N/A  WCI   4
ASSINIBOIA       N/A      9   1  72 N18         N/A  WCI -10
$$




USA.gov is the U.S. government's official web portal to all federal, state and local government web resources and services.